Powrót do katalogu

CZ-6A DEB

AktywnyPO
NORAD 61408·DEBRIS·🇨🇳 China

Wystrzelony Aug 6, 2024 z Taiyuan Satellite Launch Center

Loading…

Następne Przeloty (najbliższe 24 godziny)

TLE

ŚwieżeSource: Space-Track

Epoka: Sep 14, 2026, 11:04 UTC

1 61408U 24140XZ  26257.46122590  .00002865  00000-0  10029-2 0  9996
2 61408  89.0148 264.6940 0018097 174.6991 185.4403 14.34835118105025

Śledź CZ-6A DEB w czasie rzeczywistym z AllMySat

Download on the App Store